Date String (YYYY-MM-DD hh:mm:ss) UTC,Instrument flags,absolute air pressure of the measurement (hPa),sample flow rate (lpm),inlet stack bypass flow (lpm),air temperature of the measurement (°C),ambient temperature measured by the external sensor (°C),aerosol sample conditioner tube jacket temperature (°C),OPC LED temperature (°C),internal box temperature (°C),relative humidity of the measurement (%),span deviation,mass concentration of particles derived from Lorenz-Mie calculation of OPC scattering (μg/m³),mass concentration of particles derived from Lorenz-Mie calculation of OPC scattering (μg/m³),mass concentration of particles derived from Lorenz-Mie calculation of OPC scattering (μg/m³)
DateTimeUTC,F1_M11,P_M11,Q1_M11,Q2_M11,T1_M11,T2_M11,T3_M11,T4_M11,T5_M11,U1_M11,ZSPAN_M11,X2_M11,X0_M11,X1_M11
2023-07-21 19:00:00,SystemResetWarning,0837.4,5.00,000.00,031.6,025.4,000.0,039.2,031.1,32.7,0001.4,0007.93,0011.16,0007.51
2023-07-21 19:01:00,SystemResetWarning,0837.4,4.99,000.00,031.4,025.8,000.0,039.2,031.0,30.7,0001.4,0007.97,0011.20,0007.54
2023-07-21 19:02:00,SystemResetWarning,0837.4,5.00,000.00,031.4,026.2,000.0,039.3,031.1,29.1,0001.2,0008.00,0011.47,0007.54
2023-07-21 19:03:00,SystemResetWarning,0837.4,5.00,000.00,031.3,026.6,000.0,039.3,031.2,28.9,0000.6,0008.01,0011.62,0007.54
2023-07-21 19:04:00,SystemResetWarning,0837.5,5.01,000.00,031.3,027.0,000.0,039.3,031.2,28.4,0000.6,0007.99,0011.51,0007.54
2023-07-21 19:05:00,SystemResetWarning,0837.5,5.01,000.00,031.2,027.3,000.0,039.3,031.3,29.3,0000.3,0007.96,0011.39,0007.54
2023-07-21 19:06:00,SystemResetWarning,0837.4,5.00,000.00,031.2,027.5,000.0,039.3,031.4,29.9,0000.0,0007.93,0011.31,0007.55
2023-07-21 19:07:00,SystemResetWarning,0837.4,5.00,000.00,031.2,027.8,000.0,039.3,031.4,31.3,-000.5,0007.96,0011.48,0007.58
2023-07-21 19:08:00,SystemResetWarning,0837.4,5.00,000.00,031.2,027.9,000.0,039.3,031.5,32.4,-000.7,0007.99,0011.56,0007.59
2023-07-21 19:09:00,SystemResetWarning,0837.4,4.99,000.00,031.2,027.3,000.0,039.2,031.4,30.7,-000.8,0008.03,0011.72,0007.60
2023-07-21 19:10:00,SystemResetWarning,0837.3,5.00,000.00,031.1,025.9,000.0,039.1,031.1,29.5,-000.7,0008.05,0011.72,0007.61
2023-07-21 19:11:00,SystemResetWarning,0837.3,5.00,000.00,031.0,025.2,000.0,038.9,030.9,30.7,-000.5,0008.02,0011.69,0007.58
2023-07-21 19:12:00,SystemResetWarning,0837.5,5.00,000.00,030.8,025.3,000.0,038.9,030.8,31.7,-000.6,0007.96,0011.59,0007.52
2023-07-21 19:13:00,SystemResetWarning,0837.4,5.01,000.00,030.7,025.6,000.0,038.9,030.8,32.0,-000.5,0007.91,0011.23,0007.47
2023-07-21 19:14:00,SystemResetWarning,0837.2,4.99,000.00,030.6,026.1,000.0,038.9,030.8,32.4,-000.1,0007.85,0011.07,0007.43
2023-07-21 19:15:00,SystemResetWarning,0837.6,5.00,000.00,030.6,026.5,000.0,038.9,030.9,33.7,-000.3,0007.81,0010.97,0007.41
2023-07-21 19:16:00,SystemResetWarning,0837.3,5.00,000.00,030.5,026.9,000.0,038.9,031.0,34.0,-000.4,0007.79,0010.98,0007.39
2023-07-21 19:17:00,SystemResetWarning,0837.3,5.01,000.00,030.5,027.2,000.0,038.9,031.1,34.6,-000.3,0007.78,0011.07,0007.37
2023-07-21 19:18:00,SystemResetWarning,0837.4,5.01,000.00,030.5,027.5,000.0,038.9,031.2,32.7,0000.1,0007.71,0011.09,0007.34
2023-07-21 19:19:00,SystemResetWarning,0837.3,4.99,000.00,030.5,027.7,000.0,038.8,031.2,31.5,0000.2,0007.64,0010.90,0007.30
2023-07-21 19:20:00,SystemResetWarning,0837.3,4.99,000.00,030.5,027.9,000.0,038.8,031.3,30.8,0000.2,0007.56,0010.68,0007.26
2023-07-21 19:21:00,SystemResetWarning,0837.3,5.00,000.00,030.5,027.6,000.0,038.8,031.3,29.9,0000.2,0007.52,0010.66,0007.23
2023-07-21 19:22:00,SystemResetWarning,0837.2,5.00,000.00,030.5,026.1,000.0,038.6,031.1,29.5,-000.4,0007.49,0010.85,0007.21
2023-07-21 19:23:00,SystemResetWarning,0837.2,5.01,000.00,030.4,025.2,000.0,038.5,030.9,31.3,-000.8,0007.52,0011.15,0007.23
2023-07-21 19:24:00,SystemResetWarning,0837.2,5.01,000.00,030.3,025.2,000.0,038.5,030.7,30.7,-000.9,0007.54,0011.18,0007.25
2023-07-21 19:25:00,SystemResetWarning,0837.2,4.99,000.00,030.1,025.5,000.0,038.5,030.6,29.4,-000.9,0007.59,0011.20,0007.28
2023-07-21 19:26:00,SystemResetWarning,0837.2,5.01,000.00,030.1,025.9,000.0,038.5,030.7,30.3,-000.5,0007.60,0011.17,0007.30
2023-07-21 19:27:00,SystemResetWarning,0837.2,5.01,000.00,030.0,026.3,000.0,038.5,030.8,31.2,-000.3,0007.60,0011.13,0007.32
2023-07-21 19:28:00,SystemResetWarning,0837.2,5.00,000.00,030.0,026.7,000.0,038.4,030.8,30.9,0000.2,0007.64,0011.37,0007.34
2023-07-21 19:29:00,SystemResetWarning,0837.2,5.00,000.00,030.0,027.1,000.0,038.4,030.9,31.3,0000.3,0007.70,0012.17,0007.36
2023-07-21 19:30:00,SystemResetWarning,0837.4,5.00,000.00,030.0,027.3,000.0,038.4,031.0,32.3,0000.4,0007.77,0013.60,0007.40
2023-07-21 19:31:00,SystemResetWarning,0837.2,5.01,000.00,030.0,027.6,000.0,038.4,031.0,29.3,0000.7,0007.78,0013.58,0007.41
2023-07-21 19:32:00,SystemResetWarning,0837.2,5.00,000.00,030.0,027.8,000.0,038.4,031.1,30.1,0000.4,0007.80,0013.70,0007.43
2023-07-21 19:33:00,SystemResetWarning,0837.3,4.99,000.00,030.0,027.2,000.0,038.3,031.1,32.2,0000.7,0007.80,0013.73,0007.44
2023-07-21 19:34:00,SystemResetWarning,0837.3,5.00,000.00,030.0,025.6,000.0,038.2,030.8,33.2,0001.1,0007.79,0013.37,0007.45
2023-07-21 19:35:00,SystemResetWarning,0837.2,5.00,000.00,029.9,025.0,000.0,038.0,030.7,30.8,0001.5,0007.78,0013.34,0007.46
2023-07-21 19:36:00,SystemResetWarning,0837.2,5.01,000.00,029.8,025.1,000.0,038.0,030.4,30.6,0001.8,0007.76,0013.34,0007.45
2023-07-21 19:37:00,SystemResetWarning,0837.2,4.99,000.00,029.7,025.4,000.0,038.1,030.4,32.7,0001.4,0007.78,0013.39,0007.45
2023-07-21 19:38:00,SystemResetWarning,0837.2,4.99,000.00,029.6,025.9,000.0,038.1,030.5,33.6,0001.2,0007.81,0013.44,0007.45
2023-07-21 19:39:00,SystemResetWarning,0837.2,5.01,000.00,029.6,026.3,000.0,038.1,030.6,33.0,0001.0,0007.83,0013.18,0007.45
2023-07-21 19:40:00,SystemResetWarning,0837.2,5.01,000.00,029.6,026.7,000.0,038.1,030.7,32.9,0001.1,0007.83,0012.14,0007.46
2023-07-21 19:41:00,SystemResetWarning,0837.2,4.99,000.00,029.6,027.1,000.0,038.1,030.8,33.9,0000.9,0007.83,0010.79,0007.47
2023-07-21 19:42:00,SystemResetWarning,0837.2,4.99,000.00,029.6,027.3,000.0,038.1,030.9,34.0,0000.8,0007.88,0010.87,0007.50
2023-07-21 19:43:00,SystemResetWarning,0837.3,5.01,000.00,029.6,027.6,000.0,038.0,030.9,33.7,0001.2,0007.86,0010.69,0007.50
2023-07-21 19:44:00,SystemResetWarning,0837.2,5.01,000.00,029.7,027.7,000.0,038.0,031.0,34.3,0001.2,0007.89,0010.40,0007.53
2023-07-21 19:45:00,SystemResetWarning,0837.2,4.99,000.00,029.7,026.7,000.0,037.9,030.9,33.2,0000.8,0007.92,0010.44,0007.55
2023-07-21 19:46:00,SystemResetWarning,0837.2,4.99,000.00,029.6,025.2,000.0,037.8,030.6,33.6,0000.5,0007.96,0010.51,0007.56
2023-07-21 19:47:00,SystemResetWarning,0837.2,5.02,000.00,029.5,024.8,000.0,037.7,030.5,34.6,0000.2,0008.02,0010.62,0007.60
2023-07-21 19:48:00,SystemResetWarning,0837.2,4.98,000.00,029.4,025.1,000.0,037.7,030.3,33.3,0000.0,0008.05,0010.63,0007.63
2023-07-21 19:49:00,SystemResetWarning,0837.2,4.99,000.00,029.4,025.5,000.0,037.7,030.4,33.9,0000.1,0008.06,0010.77,0007.66
2023-07-21 19:50:00,SystemResetWarning,0837.2,5.02,000.00,029.4,026.0,000.0,037.7,030.5,30.4,0000.2,0008.10,0010.77,0007.71
2023-07-21 19:51:00,SystemResetWarning,0837.2,5.01,000.00,029.4,026.4,000.0,037.8,030.5,30.8,-000.1,0008.13,0010.81,0007.74
2023-07-21 19:52:00,SystemResetWarning,0837.3,4.99,000.00,029.4,026.7,000.0,037.8,030.6,31.4,-000.2,0008.15,0011.01,0007.77
2023-07-21 19:53:00,SystemResetWarning,0837.2,5.01,000.00,029.4,027.1,000.0,037.8,030.7,30.3,-000.4,0008.16,0011.22,0007.79
2023-07-21 19:54:00,SystemResetWarning,0837.2,5.00,000.00,029.4,027.3,000.0,037.8,030.8,28.2,-000.8,0008.21,0011.46,0007.84
2023-07-21 19:55:00,SystemResetWarning,0837.2,5.00,000.00,029.5,027.6,000.0,037.8,030.8,28.1,-000.8,0008.26,0011.67,0007.86
2023-07-21 19:56:00,SystemResetWarning,0837.2,4.98,000.00,029.5,027.8,000.0,037.8,030.9,28.5,-000.7,0008.27,0011.73,0007.87
2023-07-21 19:57:00,SystemResetWarning,0837.2,5.00,000.00,029.5,027.8,000.0,037.8,031.0,28.3,-000.7,0008.27,0011.69,0007.90
2023-07-21 19:58:00,SystemResetWarning,0837.2,5.00,000.00,029.5,026.4,000.0,037.7,030.8,26.8,-001.0,0008.24,0011.59,0007.89
2023-07-21 19:59:00,SystemResetWarning,0837.2,5.00,000.00,029.5,025.1,000.0,037.6,030.5,27.3,-000.5,0008.20,0011.55,0007.88
